{"data":{"norad_id":65964,"intl_designator":"2025-228T","name":"KUIPER-00138","alt_names":[],"object_type":"PAYLOAD","status":"ACTIVE","operator":null,"country":"US","launch_date":"2025-10-14","launch_site_code":"AFETR","launch_vehicle":null,"mission":null,"orbit_class":"UNKNOWN","rcs_meters":null,"size_class":null,"mass_kg":null,"dimensions":null,"purposes":[],"wikipedia_slug":null,"has_3d_model":false,"image_url":null,"decayed_at":null,"tle_current":{"epoch":"2026-05-24T23:44:25.611648Z","epoch_age_seconds":79535,"freshness":"FRESH","line1":"1 65964U 25228T   26144.98918532  .00001067  00000+0  16894-3 0  9995","line2":"2 65964  51.9007   5.6845 0000712 107.0470 253.0571 14.79932529 34776","mean_motion":14.79932529,"eccentricity":7.12e-5,"inclination_deg":51.9007,"raan_deg":5.6845,"arg_perigee_deg":107.047,"mean_anomaly_deg":253.0571,"bstar":0.00016894,"rev_number":3477,"period_min":97.301733138673,"perigee_km":629.03816960861,"apogee_km":630.03606240273,"semimajor_km":7007.6741160057,"source":"CELESTRAK","updated_at":"2026-05-25T13:38:05.849583Z"}}}